Location: Unspecified
(35.6961°N, 0.0000°E)
Time: 01:20:28
(UTC+00:00)

S-56A Canister/Altair - Pass Details

Date: 28 May 2019
Orbit: 633 x 2499 km, 38.9° (Epoch: 14 June)

Event Time Altitude Azimuth Distance (km) Brightness Sun altitude
Rises 01:37:12 0° 270° (W) 3,257 - -28.2°
Reaches altitude 10° 01:39:19 10° 273° (W) 2,471 - -28.0°
Exits shadow 01:42:27 37° 284° (WNW) 1,473 8.8 -27.7°
Maximum altitude 01:45:08 70° 357° (N) 1,152 8.4 -27.5°
Drops below altitude 10° 01:53:59 10° 81° (E) 3,686 11.5 -26.6°
Sets 01:57:49 0° 83° (E) 4,982 12.2 -26.2°
